This is the latest recevied weather packets stored in our database for station/object KD0KHX-10. If no packets are shown the sender has not sent any weather packets the latest 10 day(s).
| Time | Temp. | Humidity | Pressure | Rain* | Wind** | Luminosity | Snow |
|---|---|---|---|---|---|---|---|
| 1778109003 | 8.33° C | 75% | 1012.8 hPa | 0 mm | - | - | - |
| 1778108703 | 8.33° C | 75% | 1012.7 hPa | 0 mm | - | - | - |
| 1778108403 | 8.33° C | 75% | 1012.7 hPa | 0 mm | - | - | - |
| 1778108237 | 8.33° C | 74% | 1012.7 hPa | 0 mm | - | - | - |
| 1778107803 | 8.33° C | 74% | 1012.7 hPa | 0 mm | - | - | - |
| 1778107772 | 8.33° C | 74% | 1012.7 hPa | 0 mm | - | - | - |
| 1778107203 | 8.33° C | 74% | 1012.7 hPa | 0 mm | - | - | - |
| 1778107037 | 8.33° C | 74% | 1012.7 hPa | 0 mm | - | - | - |
| 1778106603 | 8.33° C | 74% | 1012.7 hPa | 0 mm | - | - | - |
| 1778106572 | 8.33° C | 74% | 1012.7 hPa | 0 mm | - | - | - |
| 1778106003 | 8.33° C | 75% | 1012.6 hPa | 0 mm | - | - | - |
| 1778105703 | 8.89° C | 74% | 1012.8 hPa | 0 mm | - | - | - |
| 1778105403 | 8.89° C | 71% | 1012.7 hPa | 0 mm | - | - | - |
| 1778105103 | 9.44° C | 71% | 1012.7 hPa | 0 mm | - | - | - |
| 1778104803 | 9.44° C | 69% | 1012.7 hPa | 0 mm | - | - | - |
| 1778104503 | 9.44° C | 71% | 1012.7 hPa | 0 mm | - | - | - |
| 1778104203 | 9.44° C | 70% | 1012.9 hPa | 0 mm | - | - | - |
| 1778103903 | 9.44° C | 69% | 1012.9 hPa | 0 mm | - | - | - |
| 1778103738 | 9.44° C | 71% | 1012.9 hPa | 0 mm | - | - | - |
| 1778103303 | 9.44° C | 72% | 1012.9 hPa | 0 mm | - | - | - |
| 1778103003 | 9.44° C | 73% | 1013.1 hPa | 0 mm | - | - | - |
| 1778102972 | 9.44° C | 72% | 1013.1 hPa | 0 mm | - | - | - |
| 1778102403 | 8.89° C | 73% | 1013.1 hPa | 0 mm | - | - | - |
| 1778102237 | 8.89° C | 74% | 1013.2 hPa | 0 mm | - | - | - |
| 1778102073 | 8.89° C | 74% | 1013.3 hPa | 0 mm | - | - | - |
* Rain latest hour (hover to see other rain measurements)
** Current wind speed in m/s (hover to see current wind gust speed)